{"data":{"norad_id":67779,"intl_designator":"2026-030R","name":"KUIPER-00215","alt_names":[],"object_type":"PAYLOAD","status":"ACTIVE","operator":null,"country":"US","launch_date":"2026-02-12","launch_site_code":"FRGUI","launch_vehicle":null,"mission":null,"orbit_class":"UNKNOWN","rcs_meters":null,"size_class":null,"mass_kg":null,"dimensions":null,"purposes":[],"wikipedia_slug":null,"has_3d_model":false,"image_url":null,"decayed_at":null,"tle_current":{"epoch":"2026-09-20T16:51:17.156160Z","epoch_age_seconds":68856,"freshness":"FRESH","line1":"1 67779U 26030R   26263.70228190  .00001960  00000+0  28599-3 0  9996","line2":"2 67779  51.8992  48.1988 0000644 112.7999 247.3032 14.79941407 34376","mean_motion":14.79941407,"eccentricity":6.44e-5,"inclination_deg":51.8992,"raan_deg":48.1988,"arg_perigee_deg":112.7999,"mean_anomaly_deg":247.3032,"bstar":0.00028599,"rev_number":3437,"period_min":97.301149436655,"perigee_km":629.05779807666,"apogee_km":629.96038289311,"semimajor_km":7007.6460904849,"source":"CELESTRAK","updated_at":"2026-09-21T09:00:16.852480Z"}}}